Location: M.A.R.S.Observatory
(35.4031°N, 81.5481°W)
Time: 13:10:35
(UTC-05:00)

Daily predictions for brighter satellites

Satellite Brightness Start Highest point End
(mag) Time Altitude Azimuth Time Altitude Azimuth Time Altitude Azimuth
Cosmos 44 3.5 17:59:27 10° SSW 18:04:45 75° ESE 18:09:52 10° NNE
Cosmos 1300 3.4 18:02:52 10° NNE 18:06:21 32° E 18:09:49 10° SE
USA 116 4.1 18:04:42 10° N 18:07:45 49° WNW 18:10:44 10° SSW
Cosmos 2228 Rocket 3.5 18:12:28 10° NNW 18:16:52 67° W 18:21:16 10° S
Cosmos 2279 Rocket 4.4 18:11:47 10° N 18:17:35 40° ENE 18:23:21 10° SSE
Hubble Space Telescope 3.4 18:16:16 10° WSW 18:18:47 16° SSW 18:21:20 10° SSE
Cosmos 371 Rocket 3.8 18:15:29 10° SSW 18:20:14 62° WNW 18:25:00 10° N
Cosmos 540 Rocket 3.5 18:15:19 10° SSW 18:20:29 80° ESE 18:25:40 10° NNE
MSX 4.0 18:16:58 10° SSE 18:22:41 83° WSW 18:28:26 10° NNW
USA 215 4.0 18:19:38 10° E 18:25:20 33° NNE 18:31:03 10° NNW
OAO 1 Rocket 4.5 18:20:08 10° W 18:25:27 87° S 18:30:38 11° E
Cosmos 2151 2.9 18:21:45 10° S 18:25:57 77° E 18:30:08 10° N
SMAP 4.1 18:22:24 10° S 18:26:54 50° W 18:31:26 10° NNW
Cosmos 1844 Rocket 3.3 18:21:22 10° NNW 18:26:56 61° WSW 18:32:27 10° S
Meteor 1-28 Rocket 3.3 18:27:49 10° NNE 18:31:27 52° E 18:35:05 10° S
Lacrosse 5 rocket 2.2 18:31:29 10° NNW 18:34:48 27° NE 18:37:21 15° E
Meteor 1-11 4.2 18:30:37 10° S 18:36:14 75° E 18:41:59 10° NNE
FREGAT/IRIS 4.0 18:35:00 10° ESE 18:37:14 19° ENE 18:39:31 10° NNE
CZ-4 R/B 4.2 18:40:26 10° SW 18:43:23 21° W 18:46:21 10° NW
Cosmos 1980 4.4 18:38:32 10° SW 18:44:05 55° WNW 18:49:41 10° NNE
Meteor 2-10 3.9 18:39:48 10° N 18:44:54 66° E 18:50:07 10° SSE
Cosmos 1151 Rocket 3.4 18:42:55 10° NNW 18:47:10 65° W 18:51:24 10° S
Cosmos 1805 Rocket 3.6 18:45:29 10° S 18:49:51 61° E 18:54:16 10° NNE
SKYMED 2 4.3 18:47:07 10° N 18:51:23 56° WNW 18:55:37 10° SSW
METEOR-M 4.2 18:48:03 10° SSE 18:53:15 54° ENE 18:58:28 10° N
Cosmos 1125 Rocket 3.9 18:49:04 10° NNW 18:54:13 67° WSW 18:59:21 10° S
Spot 2 Rocket 4.3 18:55:10 10° SE 18:59:25 28° ENE 19:03:41 10° N
Transit 2A Rocket 4.4 18:55:37 10° NNW 18:59:55 69° ENE 19:04:14 10° SSE
Cosmos 2333 Rocket 3.8 18:56:11 10° SW 19:01:13 33° WNW 19:06:17 10° N
Cosmos 304 Rocket 3.8 18:56:35 10° SSW 19:01:23 84° WNW 19:06:14 10° NNE
SJ-6B 2.9 18:58:01 10° SSE 19:01:57 54° ENE 19:05:59 10° N
Abrixas 4.3 19:00:10 10° W 19:02:35 23° NNW 19:03:34 19° N
USA 229 DEB 4.0 18:56:56 10° S 19:03:18 43° ESE 19:07:08 23° ENE
USA 229 4.1 18:57:03 10° S 19:03:25 43° ESE 19:07:11 23° ENE
Cosmos 2219 Rocket 4.3 19:02:15 10° WSW 19:06:41 23° WNW 19:11:07 10° N
Cosmos 1603 4.5 19:02:07 10° SSE 19:06:49 28° ESE 19:07:24 27° E
Sich 1 3.0 19:05:06 10° S 19:09:29 65° E 19:13:25 13° NNE
Cosmos 1703 3.4 19:05:50 10° SSW 19:09:43 74° W 19:13:37 10° N
Cosmos 1538 Rocket 3.9 19:04:53 10° S 19:10:08 76° ESE 19:14:48 14° NNE
Cosmos 1184 Rocket 2.8 19:08:59 10° S 19:12:12 56° ESE 19:12:12 56° ESE
Cosmos 1626 2.0 19:08:53 10° S 19:12:37 89° ENE 19:15:27 17° N
NOAA 12 4.0 19:07:48 10° SSE 19:13:02 89° WSW 19:18:19 10° NNW
Cosmos 1633 Rocket 2.9 19:11:06 10° S 19:15:28 66° E 19:18:22 21° NNE
Cosmos 923 Rocket 4.4 19:13:15 10° SSE 19:18:00 37° E 19:18:12 37° E
Cosmos 2278 Rocket 3.1 19:13:13 10° NNW 19:18:41 51° WSW 19:24:09 10° S
Iridium 4 Rocket 3.2 19:16:18 10° SSE 19:20:48 50° E 19:21:25 46° ENE
Cosmos 1455 3.2 19:19:03 10° N 19:24:26 32° SSE 19:26:37 10° SSE
Cosmos 1461 3.6 19:19:49 10° SW 19:23:54 49° WNW 19:25:59 25° N
Centaur AC-119 3.9 19:26:51 10° SSW 19:29:07 23° SSE 19:29:07 23° SSE
OTV 4 2.1 19:27:46 10° W 19:30:15 30° SW 19:30:15 30° SW
Resurs 01 Rocket 2.4 19:40:43 38° N 19:40:43 38° N 19:43:31 10° N
Cosmos 2237 Rocket 4.4 19:36:22 10° WSW 19:40:30 21° WNW 19:44:38 10° N
Cosmos 1707 Rocket 4.3 19:37:27 10° NNW 19:41:39 52° W 19:45:51 10° S
ALOS 2.1 19:40:17 10° SSE 19:44:56 88° WSW 19:49:38 10° NNW
SL-16 R/B 3.3 19:40:57 10° SW 19:46:17 42° WNW 19:50:50 14° N
Cosmos 1627 Rocket 4.3 19:44:18 10° S 19:50:25 63° E 19:50:25 63° E
Cosmos 773 Rocket 4.3 19:49:39 10° SSW 19:54:44 61° WNW 19:56:27 40° N
Milstar 3 4.3 19:52:27 10° WSW 19:58:02 28° SSW 20:02:21 17° SSE
Aureole 1 Rocket 4.1 19:54:52 10° SSW 19:59:48 62° WNW 20:03:16 27° N
USA 215 3.4 20:05:31 41° SSE 20:07:57 71° SW 20:14:31 10° NW
Lacrosse 5 rocket 3.4 20:10:35 10° WNW 20:13:10 25° WSW 20:13:10 25° WSW
Cosmos 2026 Rocket 4.4 20:17:25 10° S 20:22:09 53° SSW 20:22:09 53° SSW
